Alamogordo, NM

8:56 PM MDT on August 29, 2016 (GMT -0600)
Alamogordo-White Sands Regional

Weather History for KALM - May, 2014

Change the Weather History Date:

Saturday, May 10, 2014

  Actual Average Record
Temperature  
Mean Temperature 67 °F -  
Max Temperature 84 °F 85 °F 95 °F (1974)
Min Temperature 50 °F 54 °F 41 °F (1958)
Cooling Degree Days 2    
Growing Degree Days 17 (Base 50)    
Moisture  
Dew Point 16 °F    
Average Humidity 13    
Maximum Humidity 24    
Minimum Humidity 8    
Precipitation  
Precipitation 0.00 in - - ()
Sea Level Pressure  
Sea Level Pressure 29.87 in    
Wind  
Wind Speed 8 mph (South)    
Max Wind Speed 24 mph    
Max Gust Speed 30 mph    
Visibility 10 miles    
Events      
Averages and records for this station are not official NWS values.
T = Trace of Precipitation, MM = Missing Value Source: NWS Daily Summary

Daily Weather History Graph

Daily Weather History Graph

Search for Another Location

Airport or City:

Trip Planner

Search our weather history database for the weather conditions in past years. The results will help you decide how hot, cold, wet, or windy it might be!

Date:

Astronomy

May. 10, 2014 Rise Set
Actual Time 6:08 AM MDT 7:52 PM MDT
Civil Twilight 5:41 AM MDT 8:19 PM MDT
Nautical Twilight 5:09 AM MDT 8:51 PM MDT
Astronomical Twilight 4:35 AM MDT 9:26 PM MDT
Moon 4:03 PM MDT (5/10) 3:28 AM MDT (5/10)
Length of Visible Light 14h 37m
Length of Day
13h 43m
Waxing Gibbous, 82% of the Moon is Illuminated
May 10
Waxing Gibbous
May 14
Full
May 21
Last Quarter
May 28
New
Jun 5
First Quarter

Hourly Weather History & Observations

Time (MDT) Temp. Dew Point Humidity Pressure Visibility Wind Dir Wind Speed Gust Speed Precip Events Conditions
12:15 AM 64.4 °F 14.0 °F 14% 29.95 in 10.0 mi SSE 4.6 mph - N/A   Clear
12:35 AM 62.6 °F 12.2 °F 14% 29.94 in 10.0 mi SSE 10.4 mph - N/A   Clear
12:55 AM 59.0 °F 12.2 °F 16% 29.94 in 10.0 mi SSE 9.2 mph - N/A   Clear
1:15 AM 59.0 °F 12.2 °F 16% 29.94 in 10.0 mi SSE 6.9 mph - N/A   Clear
1:35 AM 62.6 °F 14.0 °F 15% 29.94 in 10.0 mi South 5.8 mph - N/A   Clear
1:55 AM 57.2 °F 12.2 °F 17% 29.93 in 10.0 mi SSE 6.9 mph - N/A   Clear
2:15 AM 57.2 °F 14.0 °F 18% 29.93 in 10.0 mi SSE 6.9 mph - N/A   Clear
2:35 AM 62.6 °F 14.0 °F 15% 29.93 in 10.0 mi ESE 4.6 mph - N/A   Clear
2:55 AM 60.8 °F 14.0 °F 16% 29.93 in 10.0 mi SSE 4.6 mph - N/A   Clear
3:15 AM 59.0 °F 14.0 °F 17% 29.93 in 10.0 mi Calm Calm - N/A   Clear
3:35 AM 53.6 °F 15.8 °F 22% 29.93 in 10.0 mi NE 4.6 mph - N/A   Clear
3:55 AM 50.0 °F 14.0 °F 24% 29.93 in 10.0 mi Calm Calm - N/A   Clear
4:15 AM 55.4 °F 14.0 °F 20% 29.93 in 10.0 mi East 3.5 mph - N/A   Clear
4:35 AM 53.6 °F 14.0 °F 21% 29.94 in 10.0 mi Calm Calm - N/A   Clear
4:55 AM 53.6 °F 14.0 °F 21% 29.94 in 10.0 mi Calm Calm - N/A   Clear
5:15 AM 51.8 °F 14.0 °F 22% 29.94 in 10.0 mi SE 4.6 mph - N/A   Clear
5:35 AM 53.6 °F 14.0 °F 21% 29.94 in 10.0 mi Calm Calm - N/A   Clear
5:55 AM 53.6 °F 14.0 °F 21% 29.94 in 10.0 mi Calm Calm - N/A   Clear
6:15 AM 50.0 °F 12.2 °F 22% 29.94 in 10.0 mi Calm Calm - N/A   Clear
6:35 AM 53.6 °F 14.0 °F 21% 29.95 in 10.0 mi East 3.5 mph - N/A   Clear
6:55 AM 53.6 °F 14.0 °F 21% 29.95 in 10.0 mi SSE 3.5 mph - N/A   Clear
7:15 AM 57.2 °F 17.6 °F 21% 29.95 in 10.0 mi SE 4.6 mph - N/A   Clear
7:35 AM 59.0 °F 17.6 °F 20% 29.96 in 10.0 mi SSE 4.6 mph - N/A   Clear
7:55 AM 62.6 °F 17.6 °F 18% 29.95 in 10.0 mi South 6.9 mph - N/A   Clear
8:15 AM 66.2 °F 17.6 °F 15% 29.96 in 10.0 mi South 5.8 mph - N/A   Clear
8:35 AM 68.0 °F 17.6 °F 15% 29.96 in 10.0 mi South 8.1 mph - N/A   Clear
8:55 AM 69.8 °F 17.6 °F 14% 29.96 in 10.0 mi South 6.9 mph - N/A   Clear
9:15 AM 71.6 °F 17.6 °F 13% 29.96 in 10.0 mi South 3.5 mph - N/A   Clear
9:35 AM 71.6 °F 17.6 °F 13% 29.96 in 10.0 mi SSW 8.1 mph - N/A   Clear
9:55 AM 73.4 °F 17.6 °F 12% 29.96 in 10.0 mi WSW 5.8 mph - N/A   Clear
10:15 AM 73.4 °F 17.6 °F 12% 29.95 in 10.0 mi West 9.2 mph - N/A   Clear
10:35 AM 75.2 °F 17.6 °F 11% 29.95 in 10.0 mi West 4.6 mph - N/A   Clear
10:55 AM 75.2 °F 17.6 °F 11% 29.95 in 10.0 mi SW 5.8 mph - N/A   Clear
11:15 AM 77.0 °F 17.6 °F 11% 29.94 in 10.0 mi SSW 5.8 mph - N/A   Clear
11:35 AM 77.0 °F 17.6 °F 11% 29.93 in 10.0 mi SSW 11.5 mph - N/A   Clear
11:55 AM 78.8 °F 17.6 °F 10% 29.93 in 10.0 mi SSW 9.2 mph - N/A   Clear
12:15 PM 80.6 °F 17.6 °F 10% 29.92 in 10.0 mi South 10.4 mph 17.3 mph N/A   Clear
12:35 PM 80.6 °F 19.4 °F 10% 29.90 in 10.0 mi WSW 12.7 mph 18.4 mph N/A   Clear
12:55 PM 80.6 °F 19.4 °F 10% 29.89 in 10.0 mi SSW 16.1 mph 19.6 mph N/A   Clear
1:15 PM 82.4 °F 19.4 °F 10% 29.88 in 10.0 mi South 17.3 mph 21.9 mph N/A   Clear
1:35 PM 82.4 °F 19.4 °F 10% 29.87 in 10.0 mi South 19.6 mph 23.0 mph N/A   Clear
1:55 PM 82.4 °F 19.4 °F 10% 29.86 in 10.0 mi SSW 24.2 mph 28.8 mph N/A   Clear
2:15 PM 84.2 °F 19.4 °F 9% 29.85 in 10.0 mi SSW 19.6 mph 26.5 mph N/A   Clear
2:35 PM 84.2 °F 19.4 °F 9% 29.85 in 10.0 mi WSW 8.1 mph 23.0 mph N/A   Clear
2:55 PM 84.2 °F 19.4 °F 9% 29.83 in 10.0 mi SW 16.1 mph 23.0 mph N/A   Clear
3:15 PM 84.2 °F 19.4 °F 9% 29.83 in 10.0 mi SW 17.3 mph 28.8 mph N/A   Clear
3:35 PM 84.2 °F 19.4 °F 9% 29.81 in 10.0 mi SW 11.5 mph 21.9 mph N/A   Clear
3:55 PM 84.2 °F 19.4 °F 9% 29.80 in 10.0 mi SSW 13.8 mph 26.5 mph N/A   Clear
4:15 PM 84.2 °F 19.4 °F 9% 29.79 in 10.0 mi SW 18.4 mph 29.9 mph N/A   Clear
4:35 PM 84.2 °F 19.4 °F 9% 29.79 in 10.0 mi SW 13.8 mph 23.0 mph N/A   Clear
4:55 PM 84.2 °F 19.4 °F 9% 29.78 in 10.0 mi SW 15.0 mph 25.3 mph N/A   Clear
5:15 PM 84.2 °F 17.6 °F 8% 29.78 in 10.0 mi SSW 13.8 mph 24.2 mph N/A   Clear
5:35 PM 84.2 °F 17.6 °F 8% 29.77 in 10.0 mi SW 15.0 mph 25.3 mph N/A   Clear
5:55 PM 84.2 °F 17.6 °F 8% 29.77 in 10.0 mi South 20.7 mph 24.2 mph N/A   Clear
6:15 PM 84.2 °F 17.6 °F 8% 29.77 in 10.0 mi SW 18.4 mph 25.3 mph N/A   Clear
6:35 PM 84.2 °F 15.8 °F 8% 29.76 in 10.0 mi SW 17.3 mph 25.3 mph N/A   Clear
6:55 PM 84.2 °F 15.8 °F 8% 29.76 in 10.0 mi SSW 15.0 mph 26.5 mph N/A   Clear
7:15 PM 82.4 °F 14.0 °F 8% 29.76 in 10.0 mi SW 16.1 mph 20.7 mph N/A   Clear
7:35 PM 80.6 °F 14.0 °F 8% 29.76 in 10.0 mi SSW 10.4 mph - N/A   Clear
7:55 PM 77.0 °F 14.0 °F 9% 29.76 in 10.0 mi SSW 9.2 mph - N/A   Clear
8:15 PM 73.4 °F 12.2 °F 10% 29.76 in 10.0 mi SW 4.6 mph - N/A   Clear
8:35 PM 71.6 °F 12.2 °F 10% 29.77 in 10.0 mi SSE 8.1 mph - N/A   Clear
8:55 PM 68.0 °F 12.2 °F 12% 29.77 in 10.0 mi South 6.9 mph - N/A   Clear
9:15 PM 68.0 °F 14.0 °F 12% 29.77 in 10.0 mi SE 10.4 mph - N/A   Clear
9:35 PM 69.8 °F 14.0 °F 12% 29.77 in 10.0 mi SSE 8.1 mph - N/A   Clear
9:55 PM 69.8 °F 14.0 °F 12% 29.77 in 10.0 mi SSE 9.2 mph - N/A   Clear
10:15 PM 68.0 °F 14.0 °F 12% 29.77 in 10.0 mi SSE 10.4 mph - N/A   Clear
10:35 PM 68.0 °F 14.0 °F 12% 29.78 in 10.0 mi SSE 12.7 mph - N/A   Clear
10:55 PM 69.8 °F 14.0 °F 12% 29.78 in 10.0 mi South 10.4 mph - N/A   Clear
11:15 PM 68.0 °F 14.0 °F 12% 29.78 in 10.0 mi South 10.4 mph - N/A   Clear
11:35 PM 68.0 °F 14.0 °F 12% 29.78 in 10.0 mi SSE 8.1 mph - N/A   Clear
11:55 PM 66.2 °F 14.0 °F 13% 29.78 in 10.0 mi South 9.2 mph - N/A   Clear